User: anonymous   Login
Location: Unspecified
(0.0000°N, 0.0000°E)
Time: 06:38:44
(UTC+00:00)
Language:

ADEOS II - Orbit

View from above orbital plane
View from above orbital plane
View from above satellite
View from above satellite

Ground track
Ground track

The orbit data is extracted from the following two-line orbital elements,

1 27597U 02056A   19082.83476344  .00000027  00000-0  28132-4 0  9991
2 27597  98.4625  38.3285 0000571 139.9943 220.1280 14.27389651847387
Epoch (UTC): 23 March 2019 20:02:03
Eccentricity: 0.0000571
inclination: 98.4625°
perigee height: 800 km
apogee height: 801 km
right ascension of ascending node: 38.3285°
argument of perigee: 139.9943°
revolutions per day: 14.27389651
mean anomaly at epoch: 220.1280°
orbit number at epoch: 84738

The dashed part of the orbit path shows where the satellite is in the earth's shadow,  

DLR